Date String (YYYY-MM-DD hh:mm:ss) UTC,Instrument flags,absolute air pressure of the measurement (hPa),sample flow rate (lpm),inlet stack bypass flow (lpm),air temperature of the measurement (°C),ambient temperature measured by the external sensor (°C),aerosol sample conditioner tube jacket temperature (°C),OPC LED temperature (°C),internal box temperature (°C),relative humidity of the measurement (%),span deviation,mass concentration of particles derived from Lorenz-Mie calculation of OPC scattering (μg/m³),mass concentration of particles derived from Lorenz-Mie calculation of OPC scattering (μg/m³),mass concentration of particles derived from Lorenz-Mie calculation of OPC scattering (μg/m³)
DateTimeUTC,F1_M11,P_M11,Q1_M11,Q2_M11,T1_M11,T2_M11,T3_M11,T4_M11,T5_M11,U1_M11,ZSPAN_M11,X0_M11,X2_M11,X1_M11
2023-08-11 23:00:00,SystemResetWarning,0830.7,5.01,000.00,028.5,026.0,000.0,036.8,030.1,25.8,0000.0,0009.22,0004.03,0003.51
2023-08-11 23:01:00,SystemResetWarning,0830.7,4.99,000.00,028.5,026.5,000.0,036.8,030.2,25.5,0000.0,0009.25,0004.05,0003.52
2023-08-11 23:02:00,SystemResetWarning,0830.7,5.00,000.00,028.6,026.8,000.0,036.9,030.4,25.8,0000.0,0009.22,0004.07,0003.53
2023-08-11 23:03:00,SystemResetWarning,0830.7,5.00,000.00,028.7,027.2,000.0,036.9,030.5,25.4,0000.0,0008.81,0004.09,0003.55
2023-08-11 23:04:00,SystemResetWarning,0830.7,5.00,000.00,028.7,026.9,000.0,036.9,030.4,25.1,0000.0,0008.69,0004.12,0003.57
2023-08-11 23:05:00,SystemResetWarning,0830.7,4.99,000.00,028.6,025.3,000.0,036.8,030.0,24.6,0000.0,0008.70,0004.15,0003.59
2023-08-11 23:06:00,SystemResetWarning,0830.7,5.02,000.00,028.6,024.6,000.0,036.7,029.8,24.4,0000.0,0008.78,0004.14,0003.58
2023-08-11 23:07:00,SystemResetWarning,0830.7,5.00,000.00,028.5,024.9,000.0,036.7,029.8,25.9,0000.0,0008.84,0004.14,0003.57
2023-08-11 23:08:00,SystemResetWarning,0830.8,5.00,000.00,028.4,025.3,000.0,036.7,029.9,25.9,0000.0,0008.49,0004.13,0003.56
2023-08-11 23:09:00,SystemResetWarning,0830.8,5.00,000.00,028.4,025.7,000.0,036.8,030.0,25.2,0000.0,0008.81,0004.13,0003.55
2023-08-11 23:10:00,SystemResetWarning,0830.9,5.00,000.00,028.5,026.2,000.0,036.8,030.2,24.3,0000.0,0009.45,0004.10,0003.54
2023-08-11 23:11:00,SystemResetWarning,0830.9,5.00,000.00,028.5,026.6,000.0,036.8,030.3,24.4,0000.0,0009.43,0004.11,0003.55
2023-08-11 23:12:00,SystemResetWarning,0830.9,5.00,000.00,028.6,027.0,000.0,036.9,030.4,24.4,0000.0,0009.30,0004.13,0003.55
2023-08-11 23:13:00,SystemResetWarning,0830.9,5.00,000.00,028.7,027.3,000.0,036.9,030.5,24.5,0000.0,0009.68,0004.15,0003.55
2023-08-11 23:14:00,SystemResetWarning,0830.9,4.98,000.00,028.7,026.4,000.0,036.8,030.3,24.1,0000.0,0010.13,0004.19,0003.56
2023-08-11 23:15:00,SystemResetWarning,0830.9,5.00,000.00,028.6,024.8,000.0,036.7,030.0,24.3,0000.0,0010.03,0004.19,0003.54
2023-08-11 23:16:00,SystemResetWarning,0831.0,5.01,000.00,028.5,024.6,000.0,036.7,029.8,24.7,0000.0,0010.03,0004.17,0003.54
2023-08-11 23:17:00,SystemResetWarning,0830.9,5.01,000.00,028.5,025.0,000.0,036.7,029.8,25.3,0000.0,0009.80,0004.15,0003.54
2023-08-11 23:18:00,SystemResetWarning,0831.0,5.00,000.00,028.4,025.4,000.0,036.7,029.9,25.5,0000.0,0009.90,0004.11,0003.54
2023-08-11 23:19:00,SystemResetWarning,0831.1,5.00,000.00,028.5,025.9,000.0,036.8,030.1,25.7,0000.0,0009.95,0004.10,0003.54
2023-08-11 23:20:00,SystemResetWarning,0831.1,5.00,000.00,028.5,026.3,000.0,036.8,030.2,26.4,0000.0,0009.43,0004.08,0003.54
2023-08-11 23:21:00,SystemResetWarning,0831.1,5.00,000.00,028.6,026.7,000.0,036.8,030.3,26.1,0000.0,0009.01,0004.08,0003.54
2023-08-11 23:22:00,SystemResetWarning,0831.2,5.00,000.00,028.6,027.1,000.0,036.9,030.4,26.5,0000.0,0009.69,0004.07,0003.54
2023-08-11 23:23:00,SystemResetWarning,0831.2,4.99,000.00,028.7,027.1,000.0,036.9,030.4,26.0,0000.0,0010.31,0004.03,0003.53
2023-08-11 23:24:00,SystemResetWarning,0831.1,5.00,000.00,028.6,025.5,000.0,036.8,030.1,25.5,0000.0,0009.98,0004.01,0003.54
2023-08-11 23:25:00,SystemResetWarning,0831.2,5.01,000.00,028.5,024.5,000.0,036.7,029.9,25.3,0000.0,0009.26,0003.96,0003.54
2023-08-11 23:26:00,SystemResetWarning,0831.2,5.01,000.00,028.5,024.7,000.0,036.6,029.8,24.7,0000.0,0009.21,0003.95,0003.55
2023-08-11 23:27:00,SystemResetWarning,0831.3,5.00,000.00,028.4,025.1,000.0,036.7,029.7,24.9,0000.0,0009.28,0003.98,0003.55
2023-08-11 23:28:00,SystemResetWarning,0831.3,5.00,000.00,028.4,025.5,000.0,036.7,029.9,26.5,0000.0,0009.29,0004.00,0003.54
2023-08-11 23:29:00,SystemResetWarning,0831.3,5.00,000.00,028.4,026.0,000.0,036.8,030.0,26.3,0000.0,0009.05,0004.01,0003.55
2023-08-11 23:30:00,SystemResetWarning,0831.3,4.99,000.00,028.5,026.4,000.0,036.8,030.2,26.3,0000.0,0008.95,0003.99,0003.54
2023-08-11 23:31:00,SystemResetWarning,0831.3,5.01,000.00,028.5,026.8,000.0,036.8,030.3,26.5,0000.0,0008.97,0003.99,0003.54
2023-08-11 23:32:00,SystemResetWarning,0831.4,4.99,000.00,028.6,027.1,000.0,036.9,030.4,26.5,0000.0,0008.97,0004.01,0003.54
2023-08-11 23:33:00,SystemResetWarning,0831.5,4.99,000.00,028.7,027.4,000.0,036.9,030.5,26.7,0000.0,0008.18,0004.03,0003.54
2023-08-11 23:34:00,SystemResetWarning,0831.5,4.99,000.00,028.7,026.8,000.0,036.8,030.4,27.4,0000.0,0007.16,0004.03,0003.55
2023-08-11 23:35:00,SystemResetWarning,0831.6,5.00,000.00,028.7,025.5,000.0,036.8,030.2,27.7,0000.0,0007.12,0004.04,0003.54
2023-08-11 23:36:00,SystemResetWarning,0831.6,5.01,000.00,028.6,025.5,000.0,036.7,030.1,27.8,0000.0,0007.17,0004.04,0003.52
2023-08-11 23:37:00,SystemResetWarning,0831.7,5.01,000.00,028.6,025.8,000.0,036.8,030.0,29.1,0000.0,0007.32,0004.06,0003.52
2023-08-11 23:38:00,SystemResetWarning,0831.6,5.00,000.00,028.6,026.1,000.0,036.8,030.2,31.1,0000.0,0007.40,0004.07,0003.52
2023-08-11 23:39:00,SystemResetWarning,0831.8,5.00,000.00,028.6,026.5,000.0,036.9,030.3,29.6,0000.0,0007.48,0004.06,0003.53
2023-08-11 23:40:00,SystemResetWarning,0832.2,5.00,000.00,028.7,026.9,000.0,036.9,030.4,28.9,0000.0,0007.44,0004.05,0003.53
2023-08-11 23:41:00,SystemResetWarning,0831.7,4.99,000.00,028.7,027.1,000.0,037.0,030.5,28.0,0000.0,0008.16,0004.08,0003.53
2023-08-11 23:42:00,SystemResetWarning,0832.0,5.00,000.00,028.7,027.4,000.0,037.0,030.5,25.8,0000.0,0008.51,0004.10,0003.54
2023-08-11 23:43:00,SystemResetWarning,0832.1,4.99,000.00,028.8,026.9,000.0,037.0,030.4,24.6,0000.0,0008.56,0004.10,0003.55
2023-08-11 23:44:00,SystemResetWarning,0832.2,5.01,000.00,028.7,025.5,000.0,036.9,030.2,25.3,0000.0,0009.05,0004.09,0003.57
2023-08-11 23:45:00,SystemResetWarning,0832.2,5.01,000.00,028.7,025.3,000.0,036.8,030.1,25.8,0000.0,0009.22,0004.11,0003.59
2023-08-11 23:46:00,SystemResetWarning,0832.0,5.01,000.00,028.6,025.6,000.0,036.9,030.0,26.8,0000.0,0009.50,0004.15,0003.61
2023-08-11 23:47:00,SystemResetWarning,0832.0,4.99,000.00,028.6,025.9,000.0,036.9,030.1,25.0,0000.0,0009.69,0004.20,0003.64
2023-08-11 23:48:00,SystemResetWarning,0831.9,5.00,000.00,028.6,026.4,000.0,036.9,030.3,23.4,0000.0,0009.57,0004.18,0003.66
2023-08-11 23:49:00,SystemResetWarning,0831.9,5.00,000.00,028.7,026.7,000.0,037.0,030.4,23.3,0000.0,0009.53,0004.17,0003.67
2023-08-11 23:50:00,SystemResetWarning,0831.8,4.98,000.00,028.7,027.1,000.0,037.0,030.5,25.5,0000.0,0010.09,0004.20,0003.69
2023-08-11 23:51:00,SystemResetWarning,0832.0,5.00,000.00,028.8,027.3,000.0,037.1,030.6,25.8,0000.0,0010.13,0004.25,0003.71
2023-08-11 23:52:00,SystemResetWarning,0832.1,5.00,000.00,028.8,027.0,000.0,037.0,030.5,26.8,0000.0,0009.59,0004.26,0003.74
2023-08-11 23:53:00,SystemResetWarning,0831.7,5.00,000.00,028.8,025.3,000.0,036.9,030.1,29.0,0000.0,0009.58,0004.32,0003.77
2023-08-11 23:54:00,SystemResetWarning,0831.7,5.02,000.00,028.7,024.4,000.0,036.8,029.9,28.4,0000.0,0009.58,0004.39,0003.79
2023-08-11 23:55:00,SystemResetWarning,0831.6,5.00,000.00,028.6,024.5,000.0,036.8,029.8,28.7,0000.0,0009.10,0004.42,0003.79
2023-08-11 23:56:00,SystemResetWarning,0831.6,5.00,000.00,028.5,024.9,000.0,036.8,029.8,27.7,0000.0,0010.09,0004.47,0003.81
2023-08-11 23:57:00,SystemResetWarning,0831.6,5.00,000.00,028.5,025.4,000.0,036.9,030.0,29.7,0000.0,0009.95,0004.48,0003.82
2023-08-11 23:58:00,SystemResetWarning,0831.6,5.00,000.00,028.5,025.9,000.0,036.9,030.1,29.5,0000.0,0009.82,0004.47,0003.84
2023-08-11 23:59:00,SystemResetWarning,0831.6,5.00,000.00,028.6,026.3,000.0,036.9,030.2,28.0,0000.0,0010.58,0004.53,0003.86
